﻿_id,日時,平均風速(m/s),平均風向,最大瞬間風速(m/s),最大風速時風向,気温(℃),湿度(%),10分間移動積算雨量(mm),1時間移動積算雨量(mm),日雨量(mm),累計雨量(mm)
1,2021-01-25T00:00:00,2,北,4.2,西北西,6.7,84.1,0,0,4,26.5
2,2021-01-25T00:01:00,1.8,北,4.2,西北西,6.7,84.6,0,0,0,26.5
3,2021-01-25T00:02:00,1.7,北,4.2,西北西,6.7,84.8,0,0,0,26.5
4,2021-01-25T00:03:00,1.7,北,3,北北西,6.6,84.6,0,0,0,26.5
5,2021-01-25T00:04:00,1.8,北,3.9,北北西,6.7,84.9,0,0,0,26.5
6,2021-01-25T00:05:00,1.9,北,4.7,北,6.8,85.2,0,0,0,26.5
7,2021-01-25T00:06:00,2.1,北,4.8,北,6.9,84.9,0,0,0,26.5
8,2021-01-25T00:07:00,2.2,北,4.8,北,6.9,84.1,0,0,0,26.5
9,2021-01-25T00:08:00,2.3,北北西,4.8,北,6.9,83.7,0,0,0,26.5
10,2021-01-25T00:09:00,2.3,北北西,4.8,北,6.9,83.5,0,0,0,26.5
11,2021-01-25T00:10:00,2.4,北北西,4.8,北,6.8,83.5,0,0,0,26.5
12,2021-01-25T00:11:00,2.5,北北西,4.8,北,6.8,83.7,0,0,0,26.5
13,2021-01-25T00:12:00,2.6,北北西,4.8,北,7,83.9,0,0,0,26.5
14,2021-01-25T00:13:00,2.5,北北西,4.8,北,7.1,82.9,0,0,0,26.5
15,2021-01-25T00:14:00,2.4,北北西,4.8,北,7.1,81.8,0,0,0,26.5
16,2021-01-25T00:15:00,2.2,北北西,4.8,北,7,81.1,0,0,0,26.5
17,2021-01-25T00:16:00,2,北北西,3.7,北北西,6.9,81.2,0,0,0,26.5
18,2021-01-25T00:17:00,1.9,北北西,3.6,北北西,6.8,82,0,0,0,26.5
19,2021-01-25T00:18:00,1.8,北,3.6,北北西,6.8,82.5,0,0,0,26.5
20,2021-01-25T00:19:00,1.7,北,3.6,北北西,6.7,82.7,0,0,0,26.5
21,2021-01-25T00:20:00,1.7,北,3.6,北北西,6.6,83.1,0,0,0,26.5
22,2021-01-25T00:21:00,1.7,北,3.3,北北東,6.5,83.9,0,0,0,26.5
23,2021-01-25T00:22:00,1.7,北,3.3,北北東,6.6,84.7,0,0,0,26.5
24,2021-01-25T00:23:00,1.8,北,3.7,北,6.7,85.3,0,0,0,26.5
25,2021-01-25T00:24:00,1.8,北,3.7,北,6.7,85.2,0,0,0,26.5
26,2021-01-25T00:25:00,1.8,北北東,3.7,北,6.8,84.8,0,0,0,26.5
27,2021-01-25T00:26:00,1.9,北北東,3.7,北,6.8,84.5,0,0,0,26.5
28,2021-01-25T00:27:00,1.9,北北東,3.7,北,6.8,84.1,0,0,0,26.5
29,2021-01-25T00:28:00,1.9,北,3.7,北,6.8,83.8,0,0,0,26.5
30,2021-01-25T00:29:00,1.9,北,3.7,北,6.7,83.7,0,0,0,26.5
31,2021-01-25T00:30:00,1.9,北,3.7,北,6.7,83.7,0,0,0,26.5
32,2021-01-25T00:31:00,1.9,北,3.7,北,6.6,84,0,0,0,26.5
33,2021-01-25T00:32:00,1.8,北,3.7,北,6.6,84.3,0,0,0,26.5
34,2021-01-25T00:33:00,1.9,北,4.7,北北西,6.6,84.5,0,0,0,26.5
35,2021-01-25T00:34:00,2.1,北北西,5,北北西,6.7,84.7,0,0,0,26.5
36,2021-01-25T00:35:00,2.2,北北西,5,北北西,6.7,84.7,0,0,0,26.5
37,2021-01-25T00:36:00,2.4,北北西,5.7,北,6.8,84.6,0,0,0,26.5
38,2021-01-25T00:37:00,2.5,北北西,5.7,北,7,84,0,0,0,26.5
39,2021-01-25T00:38:00,2.7,北北西,5.7,北,7,83,0,0,0,26.5
40,2021-01-25T00:39:00,2.8,北北西,5.7,北,6.9,82.6,0,0,0,26.5
41,2021-01-25T00:40:00,3.1,北北西,5.7,北,7.1,82.2,0,0,0,26.5
42,2021-01-25T00:41:00,3.2,北北西,5.7,北,7,81.5,0,0,0,26.5
43,2021-01-25T00:42:00,3.4,北北西,5.9,北北西,6.9,81.5,0,0,0,26.5
44,2021-01-25T00:43:00,3.4,北西,5.9,北北西,6.9,81.9,0,0,0,26.5
45,2021-01-25T00:44:00,3.4,北西,5.9,北北西,6.9,82.1,0,0,0,26.5
46,2021-01-25T00:45:00,3.4,北西,5.9,北北西,7.1,81.9,0,0,0,26.5
47,2021-01-25T00:46:00,3.5,北西,5.9,北北西,7.2,81,0,0,0,26.5
48,2021-01-25T00:47:00,3.5,北西,5.9,北北西,7.2,80.2,0,0,0,26.5
49,2021-01-25T00:48:00,3.6,北西,6.6,北北西,7.2,80,0,0,0,26.5
50,2021-01-25T00:49:00,3.7,北西,6.6,北北西,7.2,79.8,0,0,0,26.5
51,2021-01-25T00:50:00,3.7,北西,6.6,北北西,7.3,79.3,0,0,0,26.5
52,2021-01-25T00:51:00,3.7,北西,6.6,北北西,7.4,78.6,0,0,0,26.5
53,2021-01-25T00:52:00,3.8,北西,6.6,北北西,7.4,78.2,0,0,0,26.5
54,2021-01-25T00:53:00,4,北西,6.6,北北西,7.4,77.9,0,0,0,26.5
55,2021-01-25T00:54:00,4.1,北西,8.1,北北西,7.4,77.7,0,0,0,26.5
56,2021-01-25T00:55:00,4.3,北西,8.1,北北西,7.4,77.6,0,0,0,26.5
57,2021-01-25T00:56:00,4.3,北西,8.1,北北西,7.4,77.6,0,0,0,26.5
58,2021-01-25T00:57:00,4.3,北西,8.1,北北西,7.4,77.5,0,0,0,26.5
59,2021-01-25T00:58:00,4.4,北西,8.1,北北西,7.5,77.4,0,0,0,26.5
60,2021-01-25T00:59:00,4.4,北西,8.1,北北西,7.5,77.1,0,0,0,26.5
61,2021-01-25T01:00:00,4.4,北西,8.1,北北西,7.5,76.8,0,0,0,26.5
62,2021-01-25T01:01:00,4.5,北西,8.1,北北西,7.6,76.4,0,0,0,26.5
63,2021-01-25T01:02:00,4.4,北西,8.1,北北西,7.7,75.9,0,0,0,26.5
64,2021-01-25T01:03:00,4.2,北西,8.1,北北西,7.5,75.4,0,0,0,26.5
65,2021-01-25T01:04:00,3.9,北北西,7.7,北北西,7.2,76.3,0,0,0,26.5
66,2021-01-25T01:05:00,3.6,北北西,6.4,北西,7,78.1,0,0,0,26.5
67,2021-01-25T01:06:00,3.5,北北西,6.4,北西,7,79.5,0,0,0,26.5
68,2021-01-25T01:07:00,3.5,北北西,6.4,北西,7,80.2,0,0,0,26.5
69,2021-01-25T01:08:00,3.2,北北西,6.4,北西,7.2,80.3,0,0,0,26.5
70,2021-01-25T01:09:00,3.2,北北西,6.4,北西,7.2,80.1,0,0,0,26.5
71,2021-01-25T01:10:00,3.1,北,6.4,北西,7.2,79.8,0,0,0,26.5
72,2021-01-25T01:11:00,2.9,北,6.1,北西,7,79.7,0,0,0,26.5
73,2021-01-25T01:12:00,2.9,北,5.6,北西,7,80.3,0,0,0,26.5
74,2021-01-25T01:13:00,3,北,5.6,北西,7.1,80.8,0,0,0,26.5
75,2021-01-25T01:14:00,3.1,北北西,5.6,北西,7.2,80.6,0,0,0,26.5
76,2021-01-25T01:15:00,3,北北西,5.6,北西,7.1,80.1,0,0,0,26.5
77,2021-01-25T01:16:00,2.9,北北西,5.6,北西,7,80.4,0,0,0,26.5
78,2021-01-25T01:17:00,2.9,北北西,5.6,北西,7.1,80.8,0,0,0,26.5
79,2021-01-25T01:18:00,3.2,北北西,7.8,北西,7.2,80.8,0,0,0,26.5
80,2021-01-25T01:19:00,3.3,北北西,7.8,北西,7.4,80.5,0,0,0,26.5
81,2021-01-25T01:20:00,3.4,北北西,7.8,北西,7.4,79.4,0,0,0,26.5
82,2021-01-25T01:21:00,3.6,北北西,7.8,北西,7.4,78.7,0,0,0,26.5
83,2021-01-25T01:22:00,3.5,北北西,7.8,北西,7.5,78.5,0,0,0,26.5
84,2021-01-25T01:23:00,3.7,北北西,7.8,北西,7.6,78.1,0,0,0,26.5
85,2021-01-25T01:24:00,3.9,北西,7.8,北西,7.6,77.4,0,0,0,26.5
86,2021-01-25T01:25:00,4.2,北西,7.8,北西,7.7,76.8,0,0,0,26.5
87,2021-01-25T01:26:00,4.5,北西,7.8,北西,7.7,76.6,0,0,0,26.5
88,2021-01-25T01:27:00,4.5,北西,7.8,北西,7.7,76.4,0,0,0,26.5
89,2021-01-25T01:28:00,4.4,北西,7.4,北北西,7.6,76.4,0,0,0,26.5
90,2021-01-25T01:29:00,4.3,北西,7.2,北西,7.6,76.6,0,0,0,26.5
91,2021-01-25T01:30:00,4.4,北西,7.2,北西,7.6,76.7,0,0,0,26.5
92,2021-01-25T01:31:00,4.5,西北西,7.4,西北西,7.6,76.4,0,0,0,26.5
93,2021-01-25T01:32:00,4.6,西北西,7.4,西北西,7.7,76.2,0,0,0,26.5
94,2021-01-25T01:33:00,4.6,西北西,7.4,西北西,7.7,76,0,0,0,26.5
95,2021-01-25T01:34:00,4.7,西北西,7.4,西北西,7.7,75.9,0,0,0,26.5
96,2021-01-25T01:35:00,4.4,西北西,7.4,西北西,7.7,75.7,0,0,0,26.5
97,2021-01-25T01:36:00,4.2,北西,7.4,西北西,7.6,75.7,0,0,0,26.5
98,2021-01-25T01:37:00,4.2,北西,7.4,西北西,7.5,76.1,0,0,0,26.5
99,2021-01-25T01:38:00,4.2,北西,7.4,西北西,7.5,76.7,0,0,0,26.5
100,2021-01-25T01:39:00,4.1,北西,7.4,西北西,7.4,77,0,0,0,26.5
101,2021-01-25T01:40:00,4,北西,7.4,西北西,7.3,77.5,0,0,0,26.5
102,2021-01-25T01:41:00,3.7,北西,7,西北西,7.6,78,0,0,0,26.5
103,2021-01-25T01:42:00,3.5,北西,7,西北西,7.7,77.3,0,0,0,26.5
104,2021-01-25T01:43:00,3.3,北西,6.6,北西,7.6,76.7,0,0,0,26.5
105,2021-01-25T01:44:00,3,北北西,6.5,北西,7.4,76.7,0,0,0,26.5
106,2021-01-25T01:45:00,3.1,北北西,6.5,北西,7.1,77.6,0,0,0,26.5
107,2021-01-25T01:46:00,3.1,北北西,6.5,北西,7,79,0,0,0,26.5
108,2021-01-25T01:47:00,2.9,北北西,6.5,北西,6.8,80.1,0,0,0,26.5
109,2021-01-25T01:48:00,2.8,北北西,6.5,北西,6.8,81.1,0,0,0,26.5
110,2021-01-25T01:49:00,2.7,北北西,6.5,北西,6.8,81.9,0,0,0,26.5
111,2021-01-25T01:50:00,2.5,北北西,5,北西,6.7,82.3,0,0,0,26.5
112,2021-01-25T01:51:00,2.5,北北西,5,北西,6.7,82.8,0,0,0,26.5
113,2021-01-25T01:52:00,2.5,北,5,北西,6.7,83.4,0,0,0,26.5
114,2021-01-25T01:53:00,2.5,北,5,北北西,6.7,83.8,0,0,0,26.5
115,2021-01-25T01:54:00,2.5,北,5,北北西,6.6,83.7,0,0,0,26.5
116,2021-01-25T01:55:00,2.4,北,5,北北西,6.7,84.2,0,0,0,26.5
117,2021-01-25T01:56:00,2.4,北,5,北北西,6.6,84.3,0,0,0,26.5
118,2021-01-25T01:57:00,2.5,北,5,北北西,6.6,84.4,0,0,0,26.5
119,2021-01-25T01:58:00,2.5,北,5,北北西,6.6,84.8,0,0,0,26.5
120,2021-01-25T01:59:00,2.3,北,5,北北西,6.7,85,0,0,0,26.5
121,2021-01-25T02:00:00,2.5,北,5,北北西,6.8,84.9,0,0,0,26.5
122,2021-01-25T02:01:00,2.5,北,4.8,北,6.9,84.7,0,0,0,26.5
123,2021-01-25T02:02:00,2.6,北北西,4.8,北,6.9,84,0,0,0,26.5
124,2021-01-25T02:03:00,2.5,北北西,4.7,北北西,6.8,83.4,0,0,0,26.5
125,2021-01-25T02:04:00,2.5,北北西,4.7,北北西,6.8,83.1,0,0,0,26.5
126,2021-01-25T02:05:00,2.6,北北西,4.7,北北西,6.8,83.3,0,0,0,26.5
127,2021-01-25T02:06:00,2.5,北北西,4.7,北北西,6.9,83.1,0,0,0,26.5
128,2021-01-25T02:07:00,2.5,北北西,4.7,北北西,7,82.6,0,0,0,26.5
129,2021-01-25T02:08:00,2.6,北北西,5,西北西,7,81.9,0,0,0,26.5
130,2021-01-25T02:09:00,2.8,北西,5,西北西,7.2,81.6,0,0,0,26.5
131,2021-01-25T02:10:00,2.8,北西,5,西北西,7.3,81,0,0,0,26.5
132,2021-01-25T02:11:00,2.7,北西,5,西北西,7.4,80.3,0,0,0,26.5
133,2021-01-25T02:12:00,2.7,北西,5,西北西,7.1,79.6,0,0,0,26.5
134,2021-01-25T02:13:00,2.8,北西,5,西北西,7,80.2,0,0,0,26.5
135,2021-01-25T02:14:00,2.8,北西,5,西北西,7,81.1,0,0,0,26.5
136,2021-01-25T02:15:00,2.9,北西,5,西北西,7.3,81.4,0,0,0,26.5
137,2021-01-25T02:16:00,3,北西,5,西北西,7.4,80.5,0,0,0,26.5
138,2021-01-25T02:17:00,3.2,北西,6.3,北西,7.4,79.7,0,0,0,26.5
139,2021-01-25T02:18:00,3.4,北西,6.3,北西,7.3,79.1,0,0,0,26.5
140,2021-01-25T02:19:00,3.3,北西,6.3,北西,7.2,79.2,0,0,0,26.5
141,2021-01-25T02:20:00,3.2,北西,6.3,北西,7.1,79.4,0,0,0,26.5
142,2021-01-25T02:21:00,3.2,北西,6.3,北西,7.1,79.8,0,0,0,26.5
143,2021-01-25T02:22:00,3.1,北北西,6.3,北西,6.9,79.8,0,0,0,26.5
144,2021-01-25T02:23:00,3.1,北北西,6.3,北西,6.9,80.6,0,0,0,26.5
145,2021-01-25T02:24:00,3,北北西,6.3,北西,7,81.3,0,0,0,26.5
146,2021-01-25T02:25:00,3,北北西,6.3,北西,7,81.6,0,0,0,26.5
147,2021-01-25T02:26:00,3,北北西,6.3,北西,7.1,81.3,0,0,0,26.5
148,2021-01-25T02:27:00,2.9,北北西,5.6,北西,7.2,81.2,0,0,0,26.5
149,2021-01-25T02:28:00,2.8,北北西,5.6,北西,7.4,80.6,0,0,0,26.5
150,2021-01-25T02:29:00,2.8,北北西,5.6,北西,7.4,79.7,0,0,0,26.5
151,2021-01-25T02:30:00,2.9,北北西,5.6,北西,7.5,79.1,0,0,0,26.5
152,2021-01-25T02:31:00,3,北北西,5.6,北西,7.4,78.7,0,0,0,26.5
153,2021-01-25T02:32:00,3.2,北西,5.6,北西,7.4,78.4,0,0,0,26.5
154,2021-01-25T02:33:00,3.3,北西,5.8,西北西,7.6,78.2,0,0,0,26.5
155,2021-01-25T02:34:00,3.5,北西,5.8,西北西,7.6,77.8,0,0,0,26.5
156,2021-01-25T02:35:00,3.8,北西,7.7,北西,7.6,77.5,0,0,0,26.5
157,2021-01-25T02:36:00,3.9,北西,7.7,北西,7.7,77.2,0,0,0,26.5
158,2021-01-25T02:37:00,4.1,北西,7.7,北西,7.7,76.8,0,0,0,26.5
159,2021-01-25T02:38:00,4.2,北西,7.7,北西,7.7,76.5,0,0,0,26.5
160,2021-01-25T02:39:00,4.2,北西,7.7,北西,7.6,76.2,0,0,0,26.5
161,2021-01-25T02:40:00,4.3,北西,7.7,北西,7.6,76.5,0,0,0,26.5
162,2021-01-25T02:41:00,4.3,北西,7.7,北西,7.7,76.8,0,0,0,26.5
163,2021-01-25T02:42:00,4.3,北西,7.7,北西,7.6,76.6,0,0,0,26.5
164,2021-01-25T02:43:00,4.3,北西,7.7,北西,7.7,76.5,0,0,0,26.5
165,2021-01-25T02:44:00,4.3,北西,7.7,北西,7.7,76.1,0,0,0,26.5
166,2021-01-25T02:45:00,4.1,北西,7.6,北北西,7.6,76.2,0,0,0,26.5
167,2021-01-25T02:46:00,4,北西,7.6,北北西,7.7,76.3,0,0,0,26.5
168,2021-01-25T02:47:00,3.9,北西,7.6,北北西,7.7,76.3,0,0,0,26.5
169,2021-01-25T02:48:00,3.8,北西,7.6,北北西,7.6,76.4,0,0,0,26.5
170,2021-01-25T02:49:00,3.9,北西,7.6,北北西,7.6,76.5,0,0,0,26.5
171,2021-01-25T02:50:00,3.8,北西,6.5,北北西,7.7,76.3,0,0,0,26.5
172,2021-01-25T02:51:00,3.8,北西,6.5,北北西,7.7,75.9,0,0,0,26.5
173,2021-01-25T02:52:00,3.8,北西,6.5,北北西,7.7,75.7,0,0,0,26.5
174,2021-01-25T02:53:00,3.7,北西,6.5,北北西,7.6,75.6,0,0,0,26.5
175,2021-01-25T02:54:00,3.5,北西,6.5,北北西,7.5,76.1,0,0,0,26.5
176,2021-01-25T02:55:00,3.3,北西,6.5,北北西,7.5,76.5,0,0,0,26.5
177,2021-01-25T02:56:00,3,北西,6.5,北北西,7.3,76.9,0,0,0,26.5
178,2021-01-25T02:57:00,2.9,北西,6.5,北北西,7.1,78.1,0,0,0,26.5
179,2021-01-25T02:58:00,2.7,北北西,6.5,北北西,7,79.5,0,0,0,26.5
180,2021-01-25T02:59:00,2.5,北北西,5.3,北西,7,80.7,0,0,0,26.5
181,2021-01-25T03:00:00,2.3,北北西,5.2,西北西,7,81.4,0,0,0,26.5
182,2021-01-25T03:01:00,2.1,北北西,4.5,北西,7,81.7,0,0,0,26.5
183,2021-01-25T03:02:00,2.1,北北西,5,北北西,6.9,81.7,0,0,0,26.5
184,2021-01-25T03:03:00,2.2,北北西,5.1,西北西,7.1,81.8,0,0,0,26.5
185,2021-01-25T03:04:00,2.3,北北西,5.1,西北西,7.4,80.9,0,0,0,26.5
186,2021-01-25T03:05:00,2.4,北北西,5.1,西北西,7.3,79.4,0,0,0,26.5
187,2021-01-25T03:06:00,2.5,北北西,5.1,西北西,7.2,79.3,0,0,0,26.5
188,2021-01-25T03:07:00,2.7,北北西,6.1,北北西,7.1,79.8,0,0,0,26.5
189,2021-01-25T03:08:00,2.9,北北西,6.1,北北西,7.3,80.1,0,0,0,26.5
190,2021-01-25T03:09:00,3,北北西,6.1,北北西,7.5,79.3,0,0,0,26.5
191,2021-01-25T03:10:00,3.1,北北西,6.1,北北西,7.4,78.4,0,0,0,26.5
192,2021-01-25T03:11:00,3.2,北西,6.1,北北西,7.5,78.1,0,0,0,26.5
193,2021-01-25T03:12:00,3.4,北西,6.2,北北西,7.6,77.2,0,0,0,26.5
194,2021-01-25T03:13:00,3.5,北北西,6.2,北北西,7.6,76.3,0,0,0,26.5
195,2021-01-25T03:14:00,3.6,北北西,6.2,北北西,7.6,76.1,0,0,0,26.5
196,2021-01-25T03:15:00,3.5,北西,6.2,北北西,7.5,76.1,0,0,0,26.5
197,2021-01-25T03:16:00,3.6,北西,6.2,北北西,7.5,76.2,0,0,0,26.5
198,2021-01-25T03:17:00,3.5,北西,6.2,北北西,7.4,76.5,0,0,0,26.5
199,2021-01-25T03:18:00,3.5,北西,6.2,北北西,7.5,76.6,0,0,0,26.5
200,2021-01-25T03:19:00,3.6,北西,6.2,北北西,7.5,76.5,0,0,0,26.5
201,2021-01-25T03:20:00,3.8,北西,6.2,北北西,7.5,76.4,0,0,0,26.5
202,2021-01-25T03:21:00,3.9,北西,6.2,北北西,7.5,76.6,0,0,0,26.5
203,2021-01-25T03:22:00,3.8,北西,6.2,北北西,7.6,76.4,0,0,0,26.5
204,2021-01-25T03:23:00,3.7,北西,6.2,北北西,7.6,75.7,0,0,0,26.5
205,2021-01-25T03:24:00,3.9,北西,6.9,北北西,7.7,75.3,0,0,0,26.5
206,2021-01-25T03:25:00,4.1,北西,6.9,北北西,7.6,75,0,0,0,26.5
207,2021-01-25T03:26:00,4.2,北西,6.9,北北西,7.6,75,0,0,0,26.5
208,2021-01-25T03:27:00,4.2,北西,6.9,北北西,7.5,75.4,0,0,0,26.5
209,2021-01-25T03:28:00,4.1,北西,6.9,北北西,7.4,75.8,0,0,0,26.5
210,2021-01-25T03:29:00,4,北西,6.9,北北西,7.3,76.3,0,0,0,26.5
211,2021-01-25T03:30:00,3.8,北西,6.9,北北西,7.4,76.7,0,0,0,26.5
212,2021-01-25T03:31:00,3.7,北西,6.9,北北西,7.3,77,0,0,0,26.5
213,2021-01-25T03:32:00,3.7,北西,6.9,北北西,7.3,77.2,0,0,0,26.5
214,2021-01-25T03:33:00,3.5,北西,6.9,北北西,7.3,77.1,0,0,0,26.5
215,2021-01-25T03:34:00,3.3,北西,6.2,北北西,7.5,76.6,0,0,0,26.5
216,2021-01-25T03:35:00,3.1,北西,5.1,北西,7.4,76,0,0,0,26.5
217,2021-01-25T03:36:00,2.9,北西,4.9,北北西,7.2,76.6,0,0,0,26.5
218,2021-01-25T03:37:00,2.9,北北西,4.9,北北西,7.1,77.5,0,0,0,26.5
219,2021-01-25T03:38:00,2.8,北西,4.9,北北西,7,78.2,0,0,0,26.5
220,2021-01-25T03:39:00,2.7,北西,4.9,北北西,7.1,78.7,0,0,0,26.5
221,2021-01-25T03:40:00,2.7,北西,5.1,北西,7.3,78.6,0,0,0,26.5
222,2021-01-25T03:41:00,2.7,北西,5.1,北西,7.4,77.7,0,0,0,26.5
223,2021-01-25T03:42:00,2.7,北西,5.1,北西,7.2,77.2,0,0,0,26.5
224,2021-01-25T03:43:00,2.7,北西,5.1,北西,7.2,77.6,0,0,0,26.5
225,2021-01-25T03:44:00,2.6,北西,5.1,北西,7.2,77.8,0,0,0,26.5
226,2021-01-25T03:45:00,2.6,北西,5.1,北西,7.3,77.6,0,0,0,26.5
227,2021-01-25T03:46:00,2.7,北西,5.1,北西,7.3,77.2,0,0,0,26.5
228,2021-01-25T03:47:00,2.7,北西,5.1,北西,7.3,77,0,0,0,26.5
229,2021-01-25T03:48:00,2.8,北西,5.1,北西,7.1,76.6,0,0,0,26.5
230,2021-01-25T03:49:00,2.8,北北西,5.1,北西,6.7,77.6,0,0,0,26.5
231,2021-01-25T03:50:00,2.7,北北西,4.9,北,6.6,79.5,0,0,0,26.5
232,2021-01-25T03:51:00,2.6,北北西,4.9,北,7.1,80.4,0,0,0,26.5
233,2021-01-25T03:52:00,2.5,北北西,4.9,北,6.9,79,0,0,0,26.5
234,2021-01-25T03:53:00,2.5,北北西,4.9,北,6.9,78.8,0,0,0,26.5
235,2021-01-25T03:54:00,2.4,北北西,4.9,北,7.1,78.9,0,0,0,26.5
236,2021-01-25T03:55:00,2.4,北西,4.9,北,7,78.1,0,0,0,26.5
237,2021-01-25T03:56:00,2.2,北北西,4.7,北西,6.8,78,0,0,0,26.5
238,2021-01-25T03:57:00,2.2,北北西,3.8,北,6.6,79.3,0,0,0,26.5
239,2021-01-25T03:58:00,2.2,北西,3.6,北,6.6,80.4,0,0,0,26.5
240,2021-01-25T03:59:00,2.1,北西,3.1,西北西,6.8,81,0,0,0,26.5
241,2021-01-25T04:00:00,2.1,北西,4.4,北西,6.8,80.7,0,0,0,26.5
242,2021-01-25T04:01:00,2.2,北北西,4.4,北西,6.6,80.2,0,0,0,26.5
243,2021-01-25T04:02:00,2.2,北北西,4.4,北西,6.5,80.3,0,0,0,26.5
244,2021-01-25T04:03:00,2.2,北北西,4.4,北西,6.3,81.5,0,0,0,26.5
245,2021-01-25T04:04:00,2.3,北北西,4.4,北西,6.1,82.5,0,0,0,26.5
246,2021-01-25T04:05:00,2.4,北,4.4,北西,6,83.6,0,0,0,26.5
247,2021-01-25T04:06:00,2.5,北,4.4,北西,6,84.5,0,0,0,26.5
248,2021-01-25T04:07:00,2.5,北,4.4,北西,5.9,85.4,0,0,0,26.5
249,2021-01-25T04:08:00,2.5,北,4.4,北西,5.8,85.9,0,0,0,26.5
250,2021-01-25T04:09:00,2.4,北,4.4,北西,5.8,86.5,0,0,0,26.5
